EW4694 Weather Reports


Display with metric or nautical units.
time (UTC)temp
F
wind
direction
speed
MPH
gust
MPH
rain 1hr
in
rain 24hr
in
rain mn
in
humidity
%
barometer
mb
20260510140049 66 259 0.0 0.0 0.00 0.00 0.00 65 1014.6
20260510134602 66 278 0.0 0.0 0.00 0.00 0.00 65 1014.6
20260510133024 64 244 0.0 0.0 0.00 0.00 0.00 63 1014.9
20260510131520 63 262 0.0 0.0 0.00 0.00 0.00 62 1015.2
20260510130058 62 309 0.0 0.0 0.00 0.00 0.00 50 1015.1
20260510124602 59 285 0.0 0.0 0.00 0.00 0.00 1 1015.1
20260510123032 56 273 0.0 0.0 0.00 0.00 0.00 1 1015.0
20260510121528 55 166 0.0 0.0 0.00 0.00 0.00 1 1014.8
20260510120005 53 146 0.0 0.0 0.00 0.00 0.00 1 1014.5
20260510114601 51 76 0.0 0.0 0.00 0.00 0.00 1 1014.4
20260510113039 49 76 0.0 0.0 0.00 0.00 0.00 1 1014.0
20260510111546 48 76 0.0 0.0 0.00 0.00 0.00 1 1013.7
20260510110014 0 0.0 0.0 0.00 0.00 0.00 1013.4
20260510104512 0 0.0 0.0 0.00 0.00 0.00 1013.4
20260510103047 0 0.0 0.0 0.00 0.00 0.00 1013.2
20260510101543 0 0.0 0.0 0.00 0.00 0.00 1013.0
20260510100022 0 0.0 0.0 0.00 0.00 0.00 1013.0
20260510094526 0 0.0 0.0 0.00 0.00 0.00 1012.9
20260510093057 47 219 0.0 0.0 0.00 0.00 0.00 1 1012.9
20260510091551 47 219 0.0 0.0 0.00 0.00 0.00 1 1012.5
20260510090030 47 219 0.0 0.0 0.00 0.00 0.00 1 1012.5
20260510084526 47 219 0.0 0.0 0.00 0.00 0.00 1 1012.4
20260510083003 47 132 0.0 0.0 0.00 0.00 0.00 1 1012.3
20260510081629 47 131 0.0 0.0 0.00 0.00 0.00 1 1012.2
20260510080037 48 131 0.0 0.0 0.00 0.00 0.00 1 1012.2
20260510074535 47 131 0.0 0.0 0.00 0.00 0.00 1 1011.9
20260510073018 47 131 0.0 0.0 0.00 0.00 0.00 1 1012.0
20260510071515 47 131 0.0 0.0 0.00 0.00 0.00 1 1012.1
20260510070010 47 131 0.0 0.0 0.00 0.00 0.00 1 1012.1
20260510064507 47 131 0.0 0.0 0.00 0.00 0.00 1 1012.0
20260510063002 47 131 0.0 0.0 0.00 0.00 0.00 1 1012.1
20260510061557 47 131 0.0 0.0 0.00 0.00 0.00 1 1012.2
20260510060057 47 131 0.0 0.0 0.00 0.00 0.00 1 1012.1
20260510054549 47 131 0.0 0.0 0.00 0.00 0.00 1 1012.2
20260510053032 47 131 0.0 0.0 0.00 0.00 0.00 1 1012.4
20260510051524 47 131 0.0 0.0 0.00 0.00 0.00 1 1012.4
20260510050002 48 131 0.0 0.0 0.00 0.00 0.00 1 1012.4
20260510044557 47 131 0.0 0.0 0.00 0.00 0.00 1 1012.3
20260510043047 48 131 0.0 0.0 0.00 0.00 0.00 1 1012.2
20260510041533 48 131 0.0 0.0 0.00 0.00 0.00 1 1012.2
20260510040010 48 131 0.0 0.0 0.00 0.00 0.00 1 1012.0
20260510034506 48 130 0.0 0.0 0.00 0.00 0.00 1 1011.8
20260510033053 49 105 0.0 0.0 0.00 0.00 0.00 1 1011.9
20260510031618 49 104 0.0 0.0 0.00 0.00 0.00 1 1011.6
20260510030041 49 104 0.0 0.0 0.00 0.00 0.00 1 1011.6
20260510024538 50 104 0.0 0.0 0.00 0.00 0.00 1 1011.6
20260510023043 51 104 0.0 0.0 0.00 0.00 0.00 3 1011.3
20260510021527 51 104 0.0 0.0 0.00 0.00 0.00 8 1011.2
20260510020023 52 104 0.0 0.0 0.00 0.00 0.00 14 1011.0
20260510014520 53 103 0.0 0.0 0.00 0.00 0.00 27 1010.6
20260510013058 54 103 0.0 0.0 0.00 0.00 0.00 32 1010.4
20260510011608 56 103 0.0 0.0 0.00 0.00 0.00 43 1010.3
20260510010034 58 103 0.0 0.0 0.00 0.00 0.00 54 1010.0
20260510004630 60 103 0.0 0.0 0.00 0.00 0.00 61 1009.9
20260510003006 64 74 0.0 0.0 0.00 0.00 0.00 65 1009.7
20260510001506 65 213 0.0 0.0 0.00 0.00 0.00 63 1009.3
20260510000055 66 213 0.0 0.0 0.00 0.00 0.00 62 1009.2
20260509234601 67 280 0.0 0.0 0.00 0.00 0.00 61 1009.1
20260509233057 68 277 0.0 0.0 0.00 0.00 0.00 58 1008.9
20260509231559 68 260 0.0 0.0 0.00 0.00 0.00 57 1008.9
20260509230045 68 277 0.0 4.0 0.00 0.00 0.00 56 1008.9
20260509224541 69 292 0.0 0.0 0.00 0.00 0.00 58 1009.2
20260509223038 69 259 0.0 0.0 0.00 0.00 0.00 57 1009.3
20260509221537 68 268 0.0 1.0 0.00 0.00 0.00 57 1009.4
20260509220011 69 277 0.0 0.0 0.00 0.00 0.00 55 1009.4
20260509214506 68 281 0.0 0.0 0.00 0.00 0.00 58 1009.4
20260509213059 67 267 0.0 0.0 0.00 0.00 0.00 60 1009.5
20260509211606 68 265 0.0 0.0 0.00 0.00 0.00 59 1009.5
20260509210019 67 282 0.0 0.0 0.00 0.00 0.00 59 1009.6
20260509204515 68 304 0.0 0.0 0.00 0.00 0.00 56 1009.4
20260509203113 67 275 0.0 2.0 0.00 0.00 0.00 58 1009.3
20260509201549 67 271 0.0 1.0 0.00 0.00 0.00 57 1009.5
20260509200045 67 194 0.0 1.0 0.00 0.00 0.00 58 1009.7
20260509194522 67 265 0.0 0.0 0.00 0.00 0.00 58 1009.8
20260509193019 67 275 0.0 4.0 0.00 0.00 0.00 57 1009.9
20260509191559 67 236 0.0 3.0 0.00 0.00 0.00 59 1009.9
20260509190100 66 247 0.0 4.0 0.00 0.00 0.00 58 1009.9
20260509184530 66 289 0.0 1.0 0.00 0.00 0.00 56 1009.8
20260509183027 66 302 0.0 0.0 0.00 0.00 0.00 57 1009.9
20260509181505 67 275 0.0 0.0 0.00 0.00 0.00 59 1009.7
20260509180001 65 284 0.0 0.0 0.00 0.00 0.00 59 1009.7
20260509174541 65 281 0.0 0.0 0.00 0.00 0.00 61 1010.0
20260509173035 64 284 0.0 0.0 0.00 0.00 0.00 61 1010.1
20260509171512 63 275 0.0 0.0 0.00 0.00 0.00 60 1010.2
20260509170008 63 274 0.0 0.0 0.00 0.00 0.00 61 1010.4
20260509164547 62 286 0.0 1.0 0.00 0.00 0.00 63 1010.3
20260509163054 61 126 0.0 0.0 0.00 0.00 0.00 66 1010.4
20260509161521 61 79 0.0 0.0 0.00 0.00 0.00 65 1010.2
20260509160016 60 136 0.0 0.0 0.00 0.00 0.00 66 1010.4
20260509154554 60 142 0.0 0.0 0.00 0.00 0.00 66 1010.4
20260509153052 60 121 0.0 0.0 0.00 0.00 0.00 65 1010.4
20260509151528 60 138 0.0 0.0 0.00 0.00 0.00 63 1010.7
20260509150024 59 180 0.0 0.0 0.00 0.00 0.00 64 1011.0
20260509144503 59 209 0.0 0.0 0.00 0.00 0.00 62 1010.9
20260509143109 59 180 0.0 0.0 0.00 0.00 0.00 63 1010.9
20260509141537 58 139 0.0 0.0 0.00 0.00 0.00 59 1010.9